Погода в Ижме

Погода в Ижме : погода сейчас, прогноз погоды и архив. Всё, что Вы хотите узнать о погоде в Ижме!

Поиск расширенной информации на нашем сайте:

Другие новости

Новости СМИ2

Главная страница сайта

Новости сайта

03.07.2017

Напоминаем, что на нашем специализированном сайте Метеоцентр.Азия вы можете получить высокодетализированные автоматические прогнозы погоды по пунктам России, СНГ и мира в авиационном формате (включающие направление и скорость ветра, видимость, явления погоды, количество и форму облачности, нижнюю и верхнюю границу облачности).


Погода в Ижме - сегодня

Время (UTC), дата Ветер
(°,м/с) 
Видим.   Явления Облачность Т
(°С)
Тd
(°С)
f(%) Тe
(°С)
Pmin
(гПа)
dP
(гПа)
Po
(мм)
O2
(г/м3)
Тmin Tmax R s Состояние
почвы
03 19.02.18 тихо ()   20000 м  слаб. снег  10/6 930 м средняя 
[Sc|As op]
-10.8 -11.9 92 -11  1023.6  764  322  -10.8    0.0  51  равномерный
сухой снег
100% 
09 19.02.18 350 (С) 20000 м  {снег}  10/4 300 м средняя 
[Sc|Ac As]
-8.3 -10.3 85 -8  1024.2  0.1  764  319           
15 19.02.18 050 (СВ) 20000 м  слаб. снег  10/10 400 м 
[Sc]
-8.8 -10.8 85 -12  1024.5  0.3  764  319    -7.4  0.0     
18 19.02.18 050 (СВ) 20000 м  слаб. снег  10/4 300 м средняя 
[Sc|As op]
-12.1 -14.6 82 -15  1024.3  -0.2  764  324           
21 19.02.18 030 (СВ) 20000 м  {снег}  10/0 средняя, верхняя 
[Ac trans|Ci fib]
-16 -18.5 81 -18  1024.3  -0.1  764  329           
00 20.02.18 360 (С) 20000 м  {снег}  3/0 верхняя 
[Ci fib]
-23 -25.4 81 -26  1025  0.5  765  338           
06 20.02.18 020 (С) 20000 м    4/0 верхняя 
[Ci fib]
-26.8 -29.9 75 -30  1024.4  764  343  -26.9         
09 20.02.18 010 (С) 20000 м    10/0 средняя, верхняя 
[Ac trans|Ci fib]
-21.6 -25.6 70 -25  1023.8  -0.5  764  336           
12 20.02.18 020 (С) 20000 м    6/0 средняя, верхняя 
[Ac trans|Ci fib]
-20 -24.2 69 -24  1023.3  -0.5  763  334           
18 20.02.18 350 (С) 20000 м    3/0 верхняя 
[Ci fib]
-27.6 -30.4 77 -28  1024.6  0.1  763  344           
21 20.02.18 тихо ()   20000 м    ясно 
-29.6 -32.9 73 -30  1022.4  -0.5  763  347           
00 21.02.18 360 (С) 20000 м    ясно 
-27.2 -30.2 76 -28  1022.1  -0.2  762  343           
06 21.02.18 330 (СЗ) 20000 м    8/0 верхняя 
[Ci fib]
-27.9 -31.3 73 -29  1021.9  -0.1  762  344           
09 21.02.18 340 (С) 20000 м  слаб. снег  10/0 средняя 
[As trans]
-24.9 -28.6 71 -28  1021.5  -0.3  762  340           
18 21.02.18 010 (С) 20000 м    ясно 
-31.8 -35.3 71 -33  1021.3  -0.2  762  349           
21 21.02.18 360 (С) 20000 м    ясно 
-33.9 -37.8 68 -35  1021.3  -0.1  762  352           
00 22.02.18 010 (С) 20000 м    ясно 
-29.1 -32.4 73 -30  1020.7  -0.5  761  345           
06 22.02.18 330 (СЗ) 20000 м    8/0 средняя, верхняя 
[Ac trans|Ci fib]
-29 -32.4 72 -30  1020.5  0.1  761  345           
09 22.02.18 010 (С) 20000 м    10/0 средняя, верхняя 
[Ac trans|Ci fib]
-24.8 -28 75 -28  1020.6  0.2  761  339           
12 22.02.18 340 (С) 20000 м    10/0 средняя, верхняя 
[Ac trans|Ci fib]
-21.2 -24.4 75 -22  1020.7  0.2  761  334           
18 22.02.18 350 (С) 20000 м    10/0 средняя 
[Ac As]
-18.6 -21.2 80 -21  1021  0.4  762  331           
21 22.02.18 020 (С) 20000 м    10/0 средняя 
[Ac und]
-19 -21.9 78 -22  1022.9  0.3  762  332           
00 23.02.18 030 (СВ) 20000 м    10/0 средняя 
[Ac und]
-19.5 -23.3 72 -24  1021.6  0.4  762  332           
06 23.02.18 020 (С) 20000 м    10/0 средняя 
[Ac As]
-21.5 -25.2 72 -26  1023.5  0.8  764  336  -21.6         
09 23.02.18 340 (С) 20000 м  слаб. снег  10/0 средняя 
[As trans]
-20.2 -25 66 -25  1024.2  0.7  764  334           
Время (UTC), дата Ветер
(°,м/с) 
Видим.   Явления Облачность Т
(°С)
Тd
(°С)
f(%) Тe
(°С)
Pmin
(гПа)
dP
(гПа)
Po
(мм)
O2
(г/м3)
Тmin Tmax R s Состояние
почвы

Для получения пояснительной информации подведите курсор к названию столбца.

ПОГОДА в Ижме - архив

Всё, что Вы хотите узнать о погоде в Ижме - удобно и подробно!

Выберите нужную дату (начиная с 1 января 2015* года) и нажмите кнопку "Найти".
Будут отображены архивные сводки погоды по пункту Ижма, начиная с указанной даты.


Отображать данные в формате CSV (для использования в таблицах Excel)


Внимание! Наш архив погоды предназначен исключительно для личного некоммерческого использования в познавательных целях. Если Вам необходимы официальные справки о состоянии погоды (для производственных, юридических, коммерческих и т.п. целей), обращайтесь в органы Росгидромета.

*Примечание: данная дата относится к архиву по метеостанциям СССР (Россия, СНГ, Балтия).
Архив по метеостанциям Зарубежной Европы и Азии (кроме Китая) хранится 10 дней, по другим регионам земного шара (Китай, Африка, Америка, Австралия, Океания) - 1 день.

Ижма - район местоположения метеостанции


Название, широта, долгота, высота метеостанции:
Ижма 65°ш. 53.9°д. 38 м над ур. моря [Российская Федерация]

Дополнительная информация

В oтличие oт бoльшинства пoгoдных сайтoв мы публикуем пoдрoбную метеoинфoрмацию в детальнoм прoфессиoнальнoм фoрмате.

Характеристики температуры и влажнoсти вoздуха измеряются на высoте 2 м в тени вдали oт зданий и деревьев.
Скoрoсть ветра измеряется на высoте 10 м (на урoвне рoста челoвека скoрoсть ветра ниже в 1.5-2 раза). Если метеoстанция нахoдится в гoрoде или в лесу, тo скoрoсть ветра занижена на 2-4 м/с пo сравнению с oткрытым местoм. Скoрoсть ветра над акватoриями крупных рек и oзёр, а также на вершинах хoлмoв на 2-5 м/с выше, чем в oбычных услoвиях.
Атмoсфернoе давление в разных тoчках местнoсти мoжет значительнo oтличаться oт давления на метеoстанции, в зависимoсти oт услoвий рельефа (при пoдъёме на 10 м давление пoнижается примернo на 1 мм рт.ст.).